Regional Weather Roundup
Issued by NWS

Home | Current Version | Previous Version | Graphics & Text | Print | Product List | Glossary On
Versions: 1 2 3 4 5 6 7 8 9 10 11 12 13 14 15 16 17 18 19 20 21 22 23 24 25 26 27 28 29 30 31 32 33 34 35 36 37 38 39 40 41 42 43 44 45 46 47 48 49 50
665
ASUS43 KLOT 251003
RWRIL

ILLINOIS REGIONAL WEATHER ROUNDUP
NATIONAL WEATHER SERVICE CHICAGO/ROMEOVILLE IL
400 AM CST SAT FEB 25 2017

NOTE: "FAIR" INDICATES FEW OR NO CLOUDS BELOW 12,000 FEET WITH NO
SIGNIFICANT WEATHER AND/OR OBSTRUCTIONS TO VISIBILITY.

* THESE STATIONS ARE NOT UNDER NWS QUALITY CONTROL. THEY ALSO MAY NOT
  REPORT WEATHER SUCH AS PRECIPITATION OR FOG.

ILZ001-002-007-009-015-016-024-251100-
NORTHWEST ILLINOIS

CITY           SKY/WX    TMP DP  RH WIND       PRES   REMARKS
MOLINE         CLOUDY    24  16  71 NW20G31   29.81R WCI  10
STERLING*      FLURRIES  22  17  81 NW20      29.76R WCI   7
$$

ILZ003-004-008-010-011-017-018-251100-
NORTH CENTRAL ILLINOIS

CITY           SKY/WX    TMP DP  RH WIND       PRES   REMARKS
ROCKFORD       LGT SNOW  23  18  81 NW18      29.71R WCI   9
FREEPORT*      CLOUDY    19  15  84 NW15      29.74R WCI   5
ROCHELLE*      FLURRIES  23  19  84 NW15G21   29.71R WCI  10
DE KALB*       CLOUDY    23  19  86 NW21G26   29.68R WCI   8
PERU*          FLURRIES  25  20  83 W20G28    29.73R WCI  11
$$

ILZ005-006-012>014-019>023-251100-
NORTHEAST ILLINOIS

CITY           SKY/WX    TMP DP  RH WIND       PRES   REMARKS
CHICAGO-OHARE  CLOUDY    29  22  75 W17       29.63R WCI  17
CHICAGO-MIDWAY FLURRIES  31  23  72 W16G22    29.63R WCI  20
AURORA         FLURRIES  28  22  78 NW18      29.66R WCI  15
LANSING*       PTCLDY    30  26  84 W13       29.63S WCI  20
JOLIET*        LGT RAIN  31  26  82 W14G22    29.67R WCI  20
WAUKEGAN       LGT SNOW  25  20  81 NW9G18    29.62R WCI  15
DUPAGE AIRPORT FLURRIES  26  20  77 NW16      29.65R WCI  14
KANKAKEE*      MIX PCPN  31  26  80 W18G26    29.67R WCI  20
WHEELING       CLOUDY    27  21  78 NW13G23   29.64R WCI  16
MORRIS*        CLOUDY    29  24  84 NW21G28   29.67R WCI  15
ROMEOVILLE*    CLOUDY    29  27  93 NW14      29.65R WCI  18
NORTHERLY ISL    N/A     31  24  76 W15         N/A  WCI  20
$$

LMZ740>746-251100-
SOUTHERN LAKE MICHIGAN

STATION/POSITION SKY/WX   TEMP    WIND        PRES    VSBY  WAVE
                          AIR SEA DIR/SP/G                  HT/PER
                          (F)     (DEG/KT/KT) (MB)    (MI)  (FT/S)
HARRISON CRIB              31     280/ 15/ 18   N/A
BURNHAM HARBOR             31     250/  9/ 16   N/A
CALUMET HARBOR             31     260/  6/ 12 1002.7R
BURNS HARBOR               33     280/ 17/ 22 1003.4R
MICHIGAN CITY              32     250/ 25/ 27   N/A
$$

ILZ025>027-034>036-040-047-049-050-058-095>099-251100-
WEST-CENTRAL ILLINOIS

CITY           SKY/WX    TMP DP  RH WIND       PRES   REMARKS
QUINCY         CLOUDY    26  18  71 NW18G25   29.90R WCI  13
GALESBURG*     CLOUDY    22  18  85 NW22G29   29.82R WCI   6
MACOMB*        CLOUDY    25  18  77 NW22G35   29.87R WCI  10
JACKSONVILLE*  MIX PCPN  27  20  73 W22G32    29.87R WCI  13
PITTSFIELD*    CLOUDY    28  20  71 W15G23    29.91R WCI  16
$$

ILZ028>032-037-038-041>044-048-051>054-059>061-251100-
CENTRAL ILLINOIS

CITY           SKY/WX    TMP DP  RH WIND       PRES   REMARKS
PONTIAC        CLOUDY    30  27  87 W22G28    29.72R WCI  17
BLOOMINGTON    FLURRIES  26  21  81 W20G30    29.75R WCI  12
DECATUR        CLOUDY    29  22  75 W18G35    29.79R WCI  16
PEORIA         CLOUDY    25  18  74 W13G29    29.79R WCI  14
LACON*         CLOUDY    25  19  80 NW20G32   29.76R WCI  11
LINCOLN*       CLOUDY    29  22  76 W14G22    29.81R WCI  18
SPRINGFIELD    CLOUDY    28  19  69 W20G29    29.84R WCI  15
TAYLORVILLE    CLOUDY    28  19  70 W22G33    29.84R WCI  14
$$

ILZ033-039-045-046-055>057-062-063-251100-
EAST-CENTRAL ILLINOIS

CITY           SKY/WX    TMP DP  RH WIND       PRES   REMARKS
CHAMPAIGN      CLOUDY    29  26  89 W28G35    29.74R WCI  14
RANTOUL*       LGT SNOW  32  31  95 W20G28    29.71R WCI  20
MATTOON        MIX PCPN  29  26  89 W20G30    29.78R WCI  16
PARIS*         CLOUDY    31  27  85 W28G35    29.76R WCI  17
$$

ILZ079-100>102-251100-
SOUTHWEST ILLINOIS

CITY           SKY/WX    TMP DP  RH WIND       PRES   REMARKS
ALTON          CLOUDY    29  18  62 W22G32    29.91R WCI  16
BELLEVILLE     MIX PCPN  31  19  61 W16G22    29.90R WCI  20
CAHOKIA*       CLOUDY    31  17  56 NW22G35   29.93R WCI  18
SPARTA*        CLOUDY    31  19  59 W16G25    29.92R WCI  20
$$

ILZ064>066-069>071-074>076-080>082-084>086-088>090-092>094-251100-
SOUTH-CENTRAL ILLINOIS

CITY           SKY/WX    TMP DP  RH WIND       PRES   REMARKS
CARBONDALE     CLOUDY    32  19  58 NW16G33   29.91R WCI  21
CAIRO*         CLEAR     33  21  60 NW20G28   29.94R WCI  22
EFFINGHAM*     CLOUDY    32  25  76 W23G33    29.84R WCI  19
MARION         CLOUDY    34  21  60 W10G16    29.92R WCI  26
MT. VERNON     CLOUDY    31  20  63 W13G23    29.89R WCI  21
CENTRALIA*     CLOUDY    32  21  64 W29G36    29.87R WCI  17
SALEM*         CLOUDY    32  22  66 W23G32    29.86R WCI  19
METROPOLIS*    PTCLDY    35  21  58 NW8G17    29.92R WCI  28
$$

ILZ067-068-072-073-078-083-087-091-251100-
SOUTHEAST ILLINOIS

CITY           SKY/WX    TMP DP  RH WIND       PRES   REMARKS
LAWRENCEVILLE  CLOUDY    34  24  67 W20G29    29.83R WCI  23
FLORA*         CLOUDY    33  22  63 W22G30    29.85R WCI  21
FAIRFIELD*     CLOUDY    32  21  63 W9G18     29.86R WCI  24
HARRISBURG*    CLOUDY    35  24  65 W24G31    29.89R WCI  22
ROBINSON*      CLOUDY    33  24  72 W20G26    29.81R WCI  21
CARMI*         CLOUDY    34  24  66 W22G29    29.87R WCI  22
$$

ABBREVIATIONS USED IN REMARKS
   TC - TEMPERATURE IN CELSIUS
  WCI - WIND CHILL INDEX
   HX - HEAT INDEX
  VSB - VISIBILITY
$$





USA.gov is the U.S. government's official web portal to all federal, state and local government web resources and services.